Location: Mapua
(41.2500°S, 173.1000°E)
Time: 17:26:33
(UTC+13:00)

Envisat - Visible Passes

Search period start: 03 October 2023 00:00
Search period end: 13 October 2023 00:00
Orbit: 763 x 764 km, 98.2° (Epoch: 02 October)

Date Brightness Start Highest point End Pass type
(mag) Time Alt. Az. Time Alt. Az. Time Alt. Az.
03 Oct 5.5 02:57:24 17° ESE 02:57:34 17° ESE 03:00:47 10° SSE visible
03 Oct 3.6 04:37:34 43° SW 04:37:34 43° SW 04:41:08 10° SSW visible
04 Oct 3.7 03:59:42 51° SSE 03:59:42 51° SSE 04:03:54 10° S visible
04 Oct 4.8 05:39:51 14° WSW 05:39:51 14° WSW 05:41:25 10° SW visible
05 Oct 4.8 03:21:51 27° ESE 03:21:53 27° ESE 03:26:10 10° S visible
05 Oct 3.9 05:02:00 31° WSW 05:02:00 31° WSW 05:05:26 10° SSW visible
06 Oct 5.7 02:44:00 12° ESE 02:45:08 13° ESE 02:47:28 10° SSE visible
06 Oct 3.1 04:24:09 65° SSW 04:24:09 65° SSW 04:28:34 10° SSW visible
07 Oct 3.9 03:46:17 45° ESE 03:46:17 45° ESE 03:51:10 10° S visible
07 Oct 4.4 05:26:27 20° WSW 05:26:27 20° WSW 05:29:22 10° SW visible
08 Oct 5.1 03:08:26 20° E 03:09:23 22° ESE 03:13:13 10° SSE visible
08 Oct 3.3 04:48:35 46° WSW 04:48:35 46° WSW 04:52:59 10° SSW visible
09 Oct 6.0 02:32:26 10° ESE 02:32:42 10° ESE 02:32:59 10° SE visible
09 Oct 3.0 04:10:44 77° ESE 04:10:45 77° ESE 04:15:56 10° S visible
09 Oct 4.8 05:50:53 12° W 05:50:53 12° W 05:52:23 10° WSW visible
10 Oct 4.4 03:32:53 33° E 03:33:44 35° ESE 03:38:22 10° S visible
10 Oct 3.9 05:13:02 28° W 05:13:02 28° W 05:17:07 10° SW visible
11 Oct 5.5 02:55:02 14° E 02:56:54 17° ESE 03:00:07 10° SSE visible
11 Oct 2.9 04:35:11 63° WNW 04:35:20 63° W 04:40:28 10° SSW visible
12 Oct 3.5 03:57:21 52° ENE 03:58:10 59° ESE 04:03:14 10° S visible
12 Oct 4.5 05:37:29 16° W 05:37:31 16° W 05:40:44 10° SW visible
